EFTP Weather Reports


Display with metric or nautical units.
time (UTC)temp
F
wind
direction
speed
MPH
gust
MPH
rain 1hr
in
rain 24hr
in
rain mn
in
humidity
%
barometer
mb
20260508094730 53 314 12.0 17.0 0.00 0.00 0.00 24 1026.5
20260508092730 53 351 10.0 16.0 0.00 0.00 0.00 25 1026.5
20260508090730 52 337 10.0 20.0 0.00 0.00 0.00 32 1026.5
20260508084731 52 308 9.0 18.0 0.00 0.00 0.00 32 1026.7
20260508082730 51 296 9.0 14.0 0.00 0.00 0.00 34 1026.7
20260508080731 50 332 7.0 12.0 0.00 0.00 0.00 36 1026.6
20260508074730 51 274 8.0 12.0 0.00 0.00 0.00 39 1026.4
20260508070731 49 325 5.0 10.0 0.00 0.00 0.00 41 1026.2
20260508064730 48 302 6.0 10.0 0.00 0.00 0.00 41 1026.0
20260508062730 47 315 4.0 8.0 0.00 0.00 0.00 44 1025.9
20260508060730 46 335 4.0 7.0 0.00 0.00 0.00 45 1025.7
20260508054730 44 304 5.0 9.0 0.00 0.00 0.00 51 1025.7
20260508052731 43 303 6.0 9.0 0.00 0.00 0.00 52 1025.5
20260508050730 42 302 5.0 7.0 0.00 0.00 0.00 55 1025.3
20260508044731 41 326 4.0 6.0 0.00 0.00 0.00 60 1025.1
20260508042730 38 258 1.0 3.0 0.00 0.00 0.00 68 1025.0
20260508040730 38 239 1.0 2.0 0.00 0.00 0.00 70 1024.9
20260508034730 33 131 2.0 2.0 0.00 0.00 0.00 83 1024.9
20260508032730 30 109 1.0 1.0 0.00 0.00 0.00 84 1024.8
20260508030730 30 200 1.0 2.0 0.00 0.00 0.00 83 1024.5
20260508024729 28 123 1.0 2.0 0.00 0.00 0.00 87 1024.4
20260508022729 29 146 1.0 2.0 0.00 0.00 0.00 86 1024.1
20260508020729 28 143 1.0 2.0 0.00 0.00 0.00 87 1024.0
20260508014729 29 186 1.0 1.0 0.00 0.00 0.00 84 1023.8
20260508012729 29 136 1.0 1.0 0.00 0.00 0.00 86 1023.5
20260508010729 29 0.0 1.0 0.00 0.00 0.00 82 1023.4
20260508004729 30 139 1.0 1.0 0.00 0.00 0.00 81 1023.1
20260508002729 30 0.0 2.0 0.00 0.00 0.00 79 1022.9
20260508000730 31 0.0 1.0 0.00 0.00 0.00 77 1022.7
20260507234730 31 341 1.0 1.0 0.00 0.00 0.00 76 1022.6
20260507232729 31 84 1.0 2.0 0.00 0.00 0.00 74 1022.3
20260507230729 33 43 1.0 3.0 0.00 0.00 0.00 67 1022.1
20260507224728 33 358 2.0 3.0 0.00 0.00 0.00 70 1021.9
20260507222729 34 340 1.0 2.0 0.00 0.00 0.00 64 1021.6
20260507220728 37 331 2.0 4.0 0.00 0.00 0.00 57 1021.4
20260507214729 40 317 4.0 6.0 0.00 0.00 0.00 50 1021.1
20260507212728 41 320 5.0 8.0 0.00 0.00 0.00 48 1020.7
20260507210728 41 321 5.0 9.0 0.00 0.00 0.00 46 1020.4
20260507204729 42 310 4.0 6.0 0.00 0.00 0.00 45 1020.1
20260507202728 43 304 4.0 8.0 0.00 0.00 0.00 43 1019.8
20260507200729 43 309 4.0 7.0 0.00 0.00 0.00 44 1019.4
20260507194728 43 319 5.0 9.0 0.00 0.00 0.00 43 1019.1
20260507192728 44 305 5.0 7.0 0.00 0.00 0.00 46 1018.8
20260507190728 45 300 5.0 9.0 0.00 0.00 0.00 45 1018.6
20260507184728 46 297 5.0 7.0 0.00 0.00 0.00 43 1018.3
20260507182727 47 309 7.0 12.0 0.00 0.00 0.00 41 1018.1
20260507180727 48 302 11.0 17.0 0.00 0.00 0.00 39 1017.8
20260507174728 49 323 10.0 17.0 0.00 0.00 0.00 37 1017.6
20260507172727 49 301 10.0 15.0 0.00 0.00 0.00 34 1017.4
20260507170727 50 280 11.0 17.0 0.00 0.00 0.00 33 1017.2
20260507164728 50 284 11.0 17.0 0.00 0.00 0.00 31 1017.1
20260507162728 51 285 14.0 20.0 0.00 0.00 0.00 32 1016.9
20260507160727 51 288 14.0 21.0 0.00 0.00 0.00 29 1016.8
20260507154727 52 293 12.0 21.0 0.00 0.00 0.00 31 1016.5
20260507152726 52 294 12.0 20.0 0.00 0.00 0.00 27 1016.5
20260507150729 53 284 13.0 21.0 0.00 0.00 0.00 27 1016.4
20260507144728 52 289 15.0 21.0 0.00 0.00 0.00 27 1016.3
20260507142728 55 296 13.0 21.0 0.00 0.00 0.00 24 1016.0
20260507140727 54 288 12.0 18.0 0.00 0.00 0.00 24 1015.9
20260507134728 55 315 7.0 14.0 0.00 0.00 0.00 24 1015.9
20260507132726 55 300 8.0 12.0 0.00 0.00 0.00 24 1015.9
20260507124726 54 284 9.0 16.0 0.00 0.00 0.00 20 1015.9
20260507122726 53 267 7.0 16.0 0.00 0.00 0.00 20 1015.9
20260507120727 53 252 7.0 18.0 0.00 0.00 0.00 20 1015.8
20260507114727 53 242 6.0 12.0 0.00 0.00 0.00 20 1015.9
20260507112725 52 298 4.0 9.0 0.00 0.00 0.00 20 1016.0
20260507110726 53 309 9.0 13.0 0.00 0.00 0.00 22 1016.0
20260507104725 51 323 6.0 12.0 0.00 0.00 0.00 22 1016.1
20260507102726 51 303 6.0 13.0 0.00 0.00 0.00 19 1016.1
20260507100726 51 275 7.0 15.0 0.00 0.00 0.00 18 1016.1